Flag for Germany Weather past 2 weeks in Dachau, Bavaria, Germany

Now
88 °F

Sunny.


Feels Like: 88 °F
Forecast: 68 / 80 °F
Wind: 6 mph from East

Location: Munich / Franz Josef Strauss Airport

Current Time: Jul 5, 2015 at 8:01:58 PM

Latest Report: Jul 5, 2015 at 7:20 PM


Visibility: 10 mi

Pressure: 30.01 "Hg (28.36 "Hg at 502m altitude)

Humidity: 43%

Dew point: 63 °F

Location of DachauLocation

Historic Weather in Dachau — Graph

°F

Dachau temperature yesterday

Maximum temperature yesterday: 90 °F (at 2:50 PM)
Minimum temperature yesterday: 61 °F (at 4:50 AM)
Average temperature yesterday: 76 °F

Past Weeks' High & Low Weather Summary

 TemperatureHumidityPressure
High91 °F (Jul 5, 1:50 PM)100% (Jun 23, 12:50 AM)30.30 "Hg (Jun 23, 12:50 AM)
Low43 °F (Jun 25, 5:20 AM)32% (Jul 5, 2:50 PM)29.74 "Hg (Jun 22, 10:50 PM)
Average65 °F71%30.14 "Hg
* Reported Jun 20 6:20 PM — Jul 5 6:50 PM, Dachau, Weather by CustomWeather, © 2015

Note: Actual official high and low records may vary slightly from our data, if they occured in-between our weather recording intervals... More about our weather records

Advertising

Dachau weather history for previous 24 hours

 ConditionsComfort  
Time TempWeatherWind HumidityBarometerVisibility
6:50 PM
Sun, Jul 5
90 °FSunny.8 mph41%30.01 "Hg10 mi
6:20 PM90 °FSunny.9 mph38%30.01 "Hg10 mi
5:50 PM91 °FSunny.9 mph34%30.01 "Hg10 mi
5:20 PM91 °FSunny.10 mph34%30.04 "Hg10 mi
4:50 PM91 °FSunny.10 mph34%30.04 "Hg10 mi
4:20 PM91 °FSunny.9 mph34%30.04 "Hg10 mi
3:50 PM91 °FSunny.12 mph36%30.04 "Hg10 mi
3:20 PM91 °FPassing clouds.10 mph36%30.07 "HgN/A
2:50 PM91 °FPassing clouds.8 mph32%30.07 "HgN/A
2:20 PM91 °FPassing clouds.9 mph36%30.07 "HgN/A
1:50 PM91 °FPassing clouds.8 mph36%30.09 "HgN/A
1:20 PM90 °FSunny.9 mph41%30.09 "Hg10 mi
12:50 PM90 °FPassing clouds.8 mph46%30.09 "HgN/A
12:20 PM88 °FPassing clouds.8 mph52%30.09 "HgN/A
11:50 AM88 °FPassing clouds.7 mph46%30.12 "HgN/A
11:20 AM86 °FPassing clouds.6 mph49%30.12 "HgN/A
10:50 AM84 °FPassing clouds.5 mph55%30.12 "HgN/A
10:20 AM84 °FPassing clouds.3 mph55%30.12 "HgN/A
9:50 AM81 °FSunny.2 mph66%30.12 "Hg10 mi
9:20 AM79 °FPassing clouds.3 mph65%30.12 "HgN/A
8:50 AM77 °FPassing clouds.5 mph69%30.15 "HgN/A
8:20 AM73 °FSunny.2 mph78%30.15 "Hg10 mi
7:50 AM70 °FSunny.3 mph83%30.15 "Hg10 mi
7:20 AM68 °FSunny.1 mph88%30.15 "Hg10 mi
6:50 AM64 °FSunny.2 mph94%30.15 "Hg10 mi
6:20 AM63 °FSunny.1 mph94%30.12 "Hg10 mi
5:50 AM63 °FClear.No wind94%30.12 "Hg10 mi
5:20 AM63 °FClear.No wind94%30.12 "Hg10 mi
4:50 AM64 °FClear.No wind88%30.12 "Hg10 mi
4:20 AM64 °FClear.3 mph88%30.12 "Hg10 mi
3:50 AM64 °FClear.2 mph88%30.15 "Hg10 mi
3:20 AM64 °FClear.3 mph94%30.15 "Hg10 mi
2:50 AM64 °FClear.1 mph94%30.15 "Hg10 mi
2:20 AM66 °FClear.1 mph88%30.15 "Hg10 mi
1:50 AM66 °FClear.2 mph88%30.15 "Hg10 mi
1:20 AM66 °FClear.1 mph88%30.15 "Hg10 mi
12:50 AM68 °FClear.1 mph88%30.15 "Hg10 mi
12:20 AM68 °FClear.1 mph88%30.15 "Hg10 mi
11:50 PM
Sat, Jul 4
70 °FClear.2 mph83%30.15 "Hg10 mi
11:20 PM70 °FClear.1 mph83%30.15 "Hg10 mi
10:50 PM72 °FPassing clouds.3 mph78%30.15 "HgN/A
10:20 PM73 °FClear.1 mph74%30.15 "Hg10 mi
9:50 PM75 °FSunny.No wind69%30.15 "Hg10 mi
9:20 PM77 °FSunny.1 mph69%30.15 "Hg10 mi
8:50 PM81 °FSunny.2 mph58%30.15 "Hg10 mi
8:20 PM84 °FSunny.3 mph51%30.15 "Hg10 mi
Weather by CustomWeather, © 2015

See weather overviewHow to use our weather pages